XE2WR-3 Weather Reports


time (UTC)temp
C
wind
direction
speed
KPH
gust
KPH
rain 1hr
cm
rain 24hr
cm
rain mn
cm
humidity
%
barometer
mb
20260510191609 30 100 9.7 16.1 0.00 0.00 0.00 68 1011.2
20260510190100 29 96 9.7 16.1 0.00 0.00 0.00 67 1011.4
20260510184553 28 34 8.0 19.3 0.00 0.00 0.00 69 1011.5
20260510183052 28 93 9.7 19.3 0.00 0.00 0.00 69 1011.6
20260510181551 29 52 6.4 16.1 0.00 0.00 0.00 68 1011.7
20260510180100 29 58 8.0 17.7 0.00 0.00 0.00 66 1011.8
20260510174547 29 62 4.8 14.5 0.00 0.00 0.00 67 1011.9
20260510173046 29 86 11.3 16.1 0.00 0.00 0.00 67 1011.9
20260510171545 29 91 6.4 12.9 0.00 0.00 0.00 66 1012.0
20260510170046 28 66 6.4 12.9 0.00 0.00 0.00 65 1011.8
20260510164548 28 65 4.8 12.9 0.00 0.00 0.00 65 1012.0
20260510163051 29 60 4.8 11.3 0.00 0.00 0.00 66 1011.8
20260510161553 30 33 3.2 8.0 0.00 0.00 0.00 63 1011.8
20260510160051 30 65 0.0 4.8 0.00 0.00 0.00 62 1011.7
20260510154534 30 69 1.6 6.4 0.00 0.00 0.00 62 1011.5
20260510153039 29 290 0.0 8.0 0.00 0.00 0.00 66 1011.6
20260510151535 30 294 0.0 3.2 0.00 0.00 0.00 64 1011.5
20260510150033 30 316 0.0 3.2 0.00 0.00 0.00 65 1011.7
20260510144537 28 56 0.0 1.6 0.00 0.00 0.00 71 1011.5
20260510143039 27 264 0.0 1.6 0.00 0.00 0.00 77 1011.7
20260510141532 25 277 1.6 8.0 0.00 0.00 0.00 79 1011.6
20260510140021 25 285 1.6 8.0 0.00 0.00 0.00 79 1011.7
20260510134515 23 277 0.0 8.0 0.00 0.00 0.00 78 1011.7
20260510133022 23 295 1.6 9.7 0.00 0.00 0.00 71 1011.6
20260510131514 22 271 1.6 9.7 0.00 0.00 0.00 59 1011.5
20260510130016 22 262 1.6 4.8 0.00 0.00 0.00 55 1011.4
20260510124516 21 255 0.0 3.2 0.00 0.00 0.00 52 1011.3
20260510123012 21 252 0.0 0.0 0.00 0.00 0.00 43 1011.1
20260510121512 21 252 1.6 4.8 0.00 0.00 0.00 48 1011.0
20260510120012 21 221 1.6 4.8 0.00 0.00 0.00 62 1010.8
20260510114510 21 203 0.0 1.6 0.00 0.00 0.00 59 1010.8
20260510113013 21 92 0.0 0.0 0.00 0.00 0.00 55 1010.9
20260510111506 21 89 0.0 0.0 0.00 0.00 0.00 26 1010.6
20260510110005 22 89 0.0 0.0 0.00 0.00 0.00 22 1010.6
20260510104502 22 89 0.0 0.0 0.00 0.00 0.00 24 1010.7
20260510103002 22 89 0.0 0.0 0.00 0.00 0.00 26 1010.7
20260510101559 22 89 0.0 1.6 0.00 0.00 0.00 32 1010.7
20260510100057 22 89 0.0 1.6 0.00 0.00 0.00 39 1010.8
20260510094555 22 89 0.0 4.8 0.00 0.00 0.00 40 1010.8
20260510093104 22 68 4.8 8.0 0.00 0.00 0.00 43 1010.8
20260510091555 22 86 4.8 8.0 0.00 0.00 0.00 44 1011.0
20260510090051 22 71 3.2 9.7 0.00 0.00 0.00 49 1011.0
20260510084551 22 75 6.4 11.3 0.00 0.00 0.00 55 1011.1
20260510083049 23 86 4.8 11.3 0.00 0.00 0.00 57 1011.1
20260510081605 23 98 6.4 11.3 0.00 0.00 0.00 61 1011.2
20260510080039 23 74 9.7 14.5 0.00 0.00 0.00 65 1011.2
20260510074535 23 68 9.7 17.7 0.00 0.00 0.00 68 1011.2
20260510073039 23 61 3.2 11.3 0.00 0.00 0.00 71 1011.3
20260510071529 23 97 4.8 8.0 0.00 0.00 0.00 77 1011.2
20260510070028 23 71 3.2 8.0 0.00 0.00 0.00 78 1011.2
20260510064535 23 67 0.0 4.8 0.00 0.00 0.00 78 1011.2
20260510063036 23 65 0.0 1.6 0.00 0.00 0.00 78 1011.4
20260510061527 23 65 0.0 1.6 0.00 0.00 0.00 79 1011.5
20260510060035 23 65 1.6 3.2 0.00 0.00 0.00 79 1011.6
20260510054523 23 65 0.0 4.8 0.00 0.00 0.00 79 1011.5
20260510053034 23 66 0.0 4.8 0.00 0.00 0.00 79 1011.5
20260510051523 24 67 3.2 6.4 0.00 0.00 0.00 79 1011.6
20260510050018 24 77 1.6 4.8 0.00 0.00 0.00 79 1011.6
20260510044536 24 68 4.8 11.3 0.00 0.00 0.00 79 1011.6
20260510043017 25 77 3.2 6.4 0.00 0.00 0.00 78 1011.5
20260510041516 25 74 1.6 6.4 0.00 0.00 0.00 77 1011.3
20260510040030 25 71 1.6 6.4 0.00 0.00 0.00 77 1011.3
20260510034517 25 101 0.0 4.8 0.00 0.00 0.00 75 1011.2
20260510033015 25 67 3.2 6.4 0.00 0.00 0.00 76 1011.1
20260510031515 25 73 1.6 4.8 0.00 0.00 0.00 75 1011.2
20260510030016 25 84 3.2 6.4 0.00 0.00 0.00 74 1010.9
20260510024514 25 118 4.8 8.0 0.00 0.00 0.00 73 1010.8
20260510023013 25 87 4.8 9.7 0.00 0.00 0.00 74 1010.6
20260510021511 25 82 4.8 8.0 0.00 0.00 0.00 75 1010.4
20260510020018 25 121 3.2 8.0 0.00 0.00 0.00 75 1010.1
20260510014511 25 115 4.8 9.7 0.00 0.00 0.00 75 1009.9
20260510013011 26 82 4.8 8.0 0.00 0.00 0.00 75 1009.6
20260510011514 26 141 4.8 20.9 0.00 0.00 0.00 74 1009.6
20260510010009 26 71 6.4 16.1 0.00 0.00 0.00 73 1009.4
20260510004509 26 76 8.0 14.5 0.00 0.00 0.00 74 1009.2
20260510003009 26 115 8.0 16.1 0.00 0.00 0.00 75 1009.2
20260510001507 26 86 8.0 17.7 0.00 0.00 0.00 76 1009.2
20260510000014 26 96 8.0 17.7 0.00 0.00 0.00 77 1009.1
20260509234508 26 79 8.0 19.3 0.00 0.00 0.00 76 1009.0
20260509233008 26 71 9.7 14.5 0.00 0.00 0.00 77 1008.8
20260509231505 26 74 8.0 14.5 0.00 0.00 0.00 77 1008.7
20260509230009 26 56 8.0 19.3 0.00 0.00 0.00 77 1008.7
20260509224504 26 88 9.7 16.1 0.00 0.00 0.00 76 1008.6
20260509223004 26 61 9.7 17.7 0.00 0.00 0.00 76 1008.6
20260509221502 26 56 8.0 16.1 0.00 0.00 0.00 77 1008.6
20260509220001 26 121 8.0 16.1 0.00 0.05 0.00 76 1008.7
20260509214501 26 84 9.7 19.3 0.00 0.05 0.00 77 1008.7
20260509213102 26 58 8.0 16.1 0.00 0.05 0.00 76 1008.7
20260509211606 26 60 9.7 16.1 0.00 0.05 0.00 77 1009.0
20260509210059 26 87 9.7 14.5 0.00 0.05 0.00 76 1009.1
20260509204558 26 54 6.4 16.1 0.00 0.05 0.00 76 1009.2
20260509203106 26 93 6.4 14.5 0.00 0.05 0.00 77 1009.5
20260509201602 25 62 6.4 14.5 0.00 0.05 0.00 77 1009.8
20260509200106 25 75 8.0 16.1 0.00 0.05 0.00 78 1009.9
20260509194550 25 86 4.8 14.5 0.00 0.05 0.00 78 1010.1
20260509193109 25 124 9.7 19.3 0.00 0.05 0.00 78 1010.5